Flag for Brazil Weather past 2 weeks in Brasilia, Distrito Federal, Brazil

Now
72 °F

Sunny.


Feels Like: 76 °F
Forecast: 55 / 75 °F
Wind: 8 mph from Southeast

Location: Brasilia Aeroporto

Current Time: Jul 28, 2014 at 2:58:26 PM

Latest Report: Jul 28, 2014 at 2:00 PM


Visibility: 10 mi

Pressure: 30.27 "Hg

Humidity: 57%

Dew point: 55 °F

Location of BrasiliaLocation

Historic Weather in Brasilia — Graph

°F

Brasilia temperature yesterday

Maximum temperature yesterday: 68 °F (at 11:00 AM)
Minimum temperature yesterday: 57 °F (at 5:00 AM)
Average temperature yesterday: 62 °F

Past Weeks' High & Low Weather Summary

 TemperatureHumidityPressure
High84 °F (Jul 18, 2:00 PM)100% (Jul 28, 4:00 AM)30.36 "Hg (Jul 28, 4:00 AM)
Low48 °F (Jul 28, 4:00 AM)19% (Jul 18, 3:00 PM)30.09 "Hg (Jul 18, 4:00 AM)
Average68 °F57%30.22 "Hg
* Reported Jul 13 1:00 PM — Jul 28 1:00 PM, Brasilia, Weather by CustomWeather, © 2014

Note: Actual official high and low records may vary slightly from our data, if they occured in-between our weather recording intervals... More about our weather records

Advertising

Brasilia weather history for previous 24 hours

 ConditionsComfort  
Time TempWeatherWind HumidityBarometerVisibility
1:00 PM
Jul 28
70 °FSunny.9 mph57%30.33 "Hg10 mi
12:00 PM70 °FSunny.12 mph57%30.33 "Hg10 mi
11:00 AM72 °FPartly sunny.14 mph53%30.33 "HgN/A
10:00 AM66 °FScattered clouds.10 mph68%30.36 "HgN/A
9:00 AM63 °FScattered clouds.8 mph77%30.36 "HgN/A
8:00 AM59 °FPartly sunny.2 mph82%30.33 "Hg6 mi
7:00 AM52 °FFog.2 mph94%30.30 "Hg2 mi
6:00 AM52 °FPassing clouds.3 mph94%30.27 "HgN/A
5:00 AM50 °FCool.3 mph100%30.27 "Hg1 mi
4:00 AM48 °FCool.No wind100%30.27 "Hg1 mi
3:00 AM57 °FClear.No wind72%30.27 "Hg10 mi
2:00 AM55 °FClear.No wind77%30.27 "Hg10 mi
1:00 AM59 °FClear.No wind72%30.30 "Hg10 mi
12:00 AM59 °FClear.2 mph77%30.33 "Hg10 mi
11:00 PM
Jul 27
61 °FClear.No wind72%30.33 "Hg10 mi
10:00 PM61 °FClear.3 mph72%30.33 "Hg10 mi
9:00 PM59 °FClear.3 mph82%30.33 "Hg10 mi
8:00 PM61 °FPassing clouds.3 mph77%30.30 "HgN/A
7:00 PM61 °FPassing clouds.7 mph83%30.30 "HgN/A
6:00 PM63 °FPartly cloudy.9 mph77%30.30 "HgN/A
5:00 PM63 °FScattered clouds.12 mph77%30.30 "HgN/A
4:00 PM63 °FBroken clouds.14 mph77%30.30 "HgN/A
3:00 PM63 °FPartly sunny.12 mph83%30.30 "HgN/A
2:05 PM63 °FLight rain. Partly sunny.9 mph77%30.30 "Hg2 mi
2:00 PM64 °FLight rain. Broken clouds.9 mph73%30.30 "HgN/A
Weather by CustomWeather, © 2014

See weather overviewHow to use our weather pages